Miscellaneous Local Product
Issued by NWS North Platte, NE

Home | Current Version | Previous Version | Text Only | Print | Product List | Glossary On
Versions: 1 2 3 4 5 6 7 8 9 10 11 12 13 14 15 16 17 18 19 20 21 22 23 24 25 26 27 28 29 30 31 32 33 34 35 36 37 38 39 40 41 42 43 44 45 46 47 48 49 50
000
AXUS43 KLBF 230310
MISLBF


WESTERN AND NORTH CENTRAL NEBRASKA HOURLY WEATHER ROUNDUP
NATIONAL WEATHER SERVICE NORTH PLATTE NE
1000 PM CDT MON SEP 22 2014

***STATIONS NOT REPORTING VARIABLES SUCH AS SKY/WEATHER OR
PRESSURE ARE PROVIDED BY THE NEBRASKA DEPARTMENT OF
ROADS...RAWS...AND APRS NETWORKS...AND ARE NOT UNDER
NATIONAL WEATHER SERVICE QUALITY CONTROL***

...OBSERVATIONS IN AND NEAR THE EASTERN PANHANDLE OF NEBRASKA...

CITY           SKY/WX    TMP DP  RH WIND       PRES   REMARKS
PINE RIDGE     CLOUDY    65  54  67 S18G24    30.00F
CHADRON        MOCLDY    63  57  81 S8        29.99F
ALLIANCE       CLEAR     57  53  86 S12       30.04S
SIDNEY         PTCLDY    62  54  74 S7        30.08R
WHITECLAY        N/A     64  53  68 S8          N/A
RUSHVILLE        N/A     59  51  73 SW10        N/A
LISCO            N/A     62  56  82 E7          N/A
BIG SPRINGS      N/A     65  55  69 S15         N/A
$$

...OBSERVATIONS IN NORTH CENTRAL NEBRASKA...

CITY           SKY/WX    TMP DP  RH WIND       PRES   REMARKS
VALENTINE      CLOUDY    60  56  86 S12       30.05F
THEDFORD       CLOUDY    60  54  81 SE12      30.08F
AINSWORTH      RAIN      57  56  94 S12       30.09F
O`NEILL        LGT RAIN  64  55  71 S12       30.14S
ORD            LGT RAIN  59  56  89 SE7       30.14R
BROKEN BOW     CLOUDY    59  56  89 SE14G23   30.11F
SPRINGVIEW       N/A     59  55  85 SE7         N/A
ROSE             N/A     60  60  99 E8          N/A
NEWPORT          N/A     64  55  74 S12         N/A
COMSTOCK         N/A     62  59  90 S14         N/A
CHAMBERS         N/A     60  54  81 S6          N/A
$$

...OBSERVATIONS IN SOUTHWEST NEBRASKA AND FAR NORTHEAST COLORADO...

CITY           SKY/WX    TMP DP  RH WIND       PRES   REMARKS
WRAY           FAIR      61  58  88 S9        30.06R
HOLYOKE        FAIR      63  57  82 SE10      30.05F
IMPERIAL       CLOUDY    64  53  67 SE21G30   30.05F
OGALLALA       MOCLDY    63  53  71 E5        30.05S
NORTH PLATTE   CLOUDY    58  54  86 SE12      30.07F
MCCOOK         TSTM      61  53  75 NW14G30   30.16R
LEXINGTON      CLOUDY    60  55  85 E10       30.13S
PAXTON           N/A     62  54  76 SE9         N/A
SUTHERLAND       N/A     61  51  70 SE10        N/A
BRADY            N/A     57  53  87 NE3         N/A
GOTHENBURG       N/A     59  52  78 E5          N/A
CALLAWAY         N/A     56  55  95 SE16        N/A
$$

...SOME WEATHER OBSERVATIONS FROM AROUND THE REGION...

CITY           SKY/WX    TMP DP  RH WIND       PRES   REMARKS
DENVER         PTCLDY    59  50  72 SE7       30.13R
LARAMIE        MOCLDY    52  42  69 SW15      30.23R
CHEYENNE       CLOUDY    61  42  49 W15G23    30.17S
SCOTTSBLUFF    PTCLDY    59  58  96 SE8       30.05S
RAPID CITY     CLOUDY    62  56  80 SE6       29.95R
PIERRE         MOCLDY    65  52  62 SE17      29.98F
WINNER         FAIR      65  52  62 S17G28    30.05S
SIOUX FALLS    MOCLDY    63  50  62 S12       30.15R
OMAHA          MOCLDY    65  49  56 S7        30.19S
GRAND ISLAND   CLOUDY    66  48  52 S10       30.17R
KANSAS CITY    CLOUDY    61  52  72 SE7       30.23S
WICHITA        MOCLDY    66  47  50 SE8       30.20R
HAYS           MOCLDY    68  45  42 SE14      30.14F
LIBERAL        CLOUDY    72  48  43 S12       30.17S
GOODLAND       CLOUDY    67  50  54 S18       30.10R
$$



USA.gov is the U.S. government's official web portal to all federal, state and local government web resources and services.